Waarnemingen

Advertentie
Mijn weer
Angermünde, Duitsland (10291): temperatuur & dauwpunt: 09.08.2018 01:00:00 - 15.08.2018 01:00:00 (CEST)Angermünde, Duitsland (10291): temperatuur 5cm & temperatuur -5cm: 09.08.2018 01:00:00 - 15.08.2018 01:00:00 (CEST)Angermünde, Duitsland (10291): temperatuur -20cm & temperatuur -100cm: 09.08.2018 01:00:00 - 15.08.2018 01:00:00 (CEST)Angermünde, Duitsland (10291): windsnelheid & windstoten: 09.08.2018 01:00:00 - 15.08.2018 01:00:00 (CEST)Angermünde, Duitsland (10291): windrichting: 09.08.2018 01:00:00 - 15.08.2018 01:00:00 (CEST)Angermünde, Duitsland (10291): luchtdruk: 09.08.2018 01:00:00 - 15.08.2018 01:00:00 (CEST)Angermünde, Duitsland (10291): zicht: 09.08.2018 01:00:00 - 15.08.2018 01:00:00 (CEST)Angermünde, Duitsland (10291): Zonneschijnduur: 09.08.2018 01:00:00 - 15.08.2018 01:00:00 (CEST)Angermünde, Duitsland (10291): neerslag: 09.08.2018 01:00:00 - 15.08.2018 01:00:00 (CEST)
Datum & Tijd tt [°C] td [°C] tt 5cm [°C] tt -5cm [°C] tt -20cm [°C] tt -100cm [°C] ff [km/u] ff [kn] fx [km/u] fx [kn] dd ppp [hPa] vv [km] sd [min] rr [mm]
15.08.2018 01:00:00 18,9 16,2 18,7 21,3 22,8 21,4 16 9 27 15 W 1013,3 37 0 0,0
15.08.2018 00:00:00 19,1 16,0 18,9 21,6 23,0 21,4 18 10 31 17 W 1012,7 52 0 0,0
14.08.2018 23:00:00 19,6 15,8 19,3 21,8 23,2 21,4 19 10 29 16 W 1012,1 64 0 0,0
14.08.2018 22:00:00 20,2 16,0 19,7 22,4 23,4 21,4 16 8 29 16 W 1011,8 61 0 0,0
14.08.2018 21:00:00 20,9 15,2 20,3 23,0 23,6 21,4 16 9 29 16 W 1011,1 60 0 0,0
14.08.2018 20:00:00 21,9 14,5 20,9 24,2 23,7 21,4 11 6 26 14 WZW 1010,3 70 42 0,0
14.08.2018 19:00:00 22,8 13,9 23,7 25,2 23,7 21,4 24 13 35 19 WZW 1010,0 29 43 0,0
14.08.2018 18:00:00 22,5 14,3 23,1 25,9 23,6 21,4 12 6 32 17 WZW 1010,0 55 45 0,0
14.08.2018 17:00:00 22,5 13,7 25,4 25,3 23,6 21,4 18 10 31 17 WZW 1009,9 24 16 0,0
14.08.2018 16:00:00 22,2 13,6 22,8 25,4 23,4 21,4 18 10 34 19 WZW 1010,0 58 0 0,0
14.08.2018 15:00:00 22,4 13,2 23,4 26,8 23,1 21,4 23 12 32 17 WZW 1009,9 40 15 0,0
14.08.2018 14:00:00 23,4 13,4 27,9 26,5 22,7 21,4 13 7 34 18 ZW 1009,6 40 44 0,0
14.08.2018 13:00:00 21,0 13,9 22,6 24,4 22,5 21,4 18 10 32 17 WZW 1009,8 30 3 0,0
14.08.2018 12:00:00 20,5 13,5 22,3 24,3 22,2 21,4 19 11 33 18 WZW 1009,8 30 20 0,0
14.08.2018 11:00:00 20,5 14,6 24,0 22,7 22,0 21,4 15 8 25 14 WZW 1009,4 30 5 0,0
14.08.2018 10:00:00 19,5 14,3 20,8 22,0 21,9 21,4 15 8 29 16 W 1009,3 30 10 0,0
14.08.2018 09:00:00 19,1 14,7 21,0 21,0 21,9 21,4 15 8 30 16 W 1009,0 30 41 0,0
14.08.2018 08:00:00 17,6 14,8 17,5 20,0 22,0 21,4 16 8 26 14 WZW 1008,6 40 3 0,0
14.08.2018 07:00:00 17,5 14,8 17,0 19,7 22,2 21,4 17 9 26 14 WZW 1008,1 40 0 0,0
14.08.2018 06:00:00 17,1 14,8 15,8 19,9 22,4 21,4 9 5 19 11 WZW 1007,6 40 0 0,0
14.08.2018 05:00:00 17,5 15,0 16,3 20,4 22,7 21,5 9 5 17 9 ZZW 1007,4 35 0 0,0
14.08.2018 04:00:00 18,3 15,1 17,4 20,7 22,9 21,5 13 7 17 9 ZZW 1007,1 42 0 0,0
14.08.2018 03:00:00 18,7 15,2 17,4 21,1 23,2 21,5 11 6 19 10 Z 1007,0 47 0 0,0
14.08.2018 02:00:00 18,5 14,4 16,8 21,6 23,4 21,5 5 3 15 8 ZW 1007,0 64 0 0,0
14.08.2018 01:00:00 19,8 14,4 18,3 22,2 23,7 21,5 10 5 14 8 Z 1007,1 70 0 0,0
14.08.2018 00:00:00 21,1 13,8 20,0 22,9 23,9 21,5 7 4 15 8 ZZW 1006,9 64 0 0,0
13.08.2018 23:00:00 21,6 13,5 20,6 23,4 24,2 21,5 6 3 11 6 ZZW 1006,8 58 0 0,0
13.08.2018 22:00:00 21,9 14,1 20,8 24,0 24,4 21,5 6 3 10 5 ZW 1006,8 61 0 0,0
13.08.2018 21:00:00 22,9 12,4 21,4 24,7 24,7 21,5 7 4 19 11 W 1006,7 66 0 0,0
13.08.2018 20:00:00 24,7 11,2 24,1 25,7 24,8 21,6 17 9 27 15 W 1006,5 56 0 0,0
13.08.2018 19:00:00 26,6 9,3 25,9 26,7 25,0 21,6 16 9 23 12 W 1006,2 56 0 0,0
13.08.2018 18:00:00 26,5 13,5 26,6 28,0 24,9 21,6 4 2 11 6 ZW 1006,1 66 0 0,0
13.08.2018 17:00:00 29,6 7,8 30,5 29,4 24,7 21,6 2 1 11 6 ONO 1006,1 64 17 0,0
13.08.2018 16:00:00 29,5 8,6 30,9 29,7 24,3 21,6 2 1 24 13 WZW 1006,2 69 23 0,0
13.08.2018 15:00:00 29,9 7,1 35,8 30,8 23,7 21,6 9 5 19 10 ZZO 1006,7 50 59 0,0
13.08.2018 14:00:00 29,2 7,0 34,3 29,6 23,0 21,6 8 4 23 12 ZZW 1007,2 50 55 0,0
13.08.2018 13:00:00 28,7 7,7 34,1 29,0 22,2 21,7 12 6 23 12 O 1007,7 50 60 0,0
13.08.2018 12:00:00 27,7 7,6 32,7 27,1 21,5 21,7 9 5 17 9 OZO 1008,3 45 55 0,0
13.08.2018 11:00:00 26,4 8,5 30,1 24,7 20,9 21,7 8 4 15 8 O 1008,5 40 60 0,0
13.08.2018 10:00:00 22,9 10,1 25,9 22,0 20,5 21,7 6 4 11 6 ZO 1009,0 40 60 0,0
13.08.2018 09:00:00 19,8 9,8 21,9 19,5 20,4 21,7 6 3 9 5 OZO 1009,6 40 60 0,0
13.08.2018 08:00:00 17,1 10,0 18,7 17,5 20,5 21,7 2 1 5 3 NNO 1009,8 40 60 0,0
13.08.2018 07:00:00 12,2 10,6 10,6 16,8 20,7 21,7 3 2 4 2 NNO 1009,5 40 17 0,0
13.08.2018 06:00:00 12,1 10,6 9,6 17,3 21,0 21,7 4 2 5 3 N 1009,9 50 0 0,0
13.08.2018 05:00:00 13,1 11,5 11,1 17,8 21,2 21,7 4 2 5 3 NNO 1010,2 25 0 0,0
13.08.2018 04:00:00 13,2 10,4 12,2 18,0 21,5 21,8 0 0 3 1 N 1010,5 36 0 0,0
13.08.2018 03:00:00 13,6 9,7 10,8 18,4 21,8 21,8 0 0 3 1 N 1010,9 47 0 0,0
13.08.2018 02:00:00 13,6 10,8 11,3 18,9 22,2 21,8 0 0 3 2 N 1011,4 34 0 0,0
13.08.2018 01:00:00 14,9 10,1 12,9 19,6 22,5 21,8 2 1 5 3 WNW 1011,9 47 0 0,0
13.08.2018 00:00:00 15,0 9,7 13,2 20,2 22,8 21,8 4 2 6 3 Z 1012,3 49 0 0,0
12.08.2018 23:00:00 15,9 12,5 13,5 20,9 23,2 21,9 0 0 4 2 N 1012,5 42 0 0,0
12.08.2018 22:00:00 17,5 11,1 14,7 21,9 23,5 21,9 0 0 6 4 N 1012,8 50 0 0,0
12.08.2018 21:00:00 20,0 9,2 16,6 23,2 23,8 21,9 0 0 9 5 N 1013,1 55 0 0,0
12.08.2018 20:00:00 22,3 7,5 19,7 24,8 23,9 21,9 3 2 11 6 WZW 1013,2 70 38 0,0
12.08.2018 19:00:00 24,6 7,3 25,3 26,3 23,9 21,9 7 4 20 11 WZW 1013,6 70 60 0,0
12.08.2018 18:00:00 24,6 6,1 26,8 27,3 23,7 22,0 14 7 28 15 ZW 1014,1 42 60 0,0
12.08.2018 17:00:00 24,7 5,6 27,4 27,4 23,5 22,0 15 8 29 16 W 1014,7 30 39 0,0
12.08.2018 16:00:00 24,5 6,7 28,4 28,2 23,0 22,0 16 9 33 18 ZW 1015,5 17 60 0,0
12.08.2018 15:00:00 23,4 7,0 28,0 27,8 22,5 22,0 14 8 34 18 WZW 1016,2 30 60 0,0
12.08.2018 14:00:00 22,6 7,9 26,7 26,3 21,9 22,0 15 8 34 19 ZW 1017,0 30 41 0,0
12.08.2018 13:00:00 22,4 9,0 26,8 25,8 21,3 22,0 13 7 32 17 WZW 1017,7 30 53 0,0
12.08.2018 12:00:00 20,7 8,4 23,5 24,4 20,7 22,1 18 10 32 17 WZW 1018,6 30 52 0,0
12.08.2018 11:00:00 19,4 10,1 22,4 22,7 20,2 22,1 14 8 28 15 WZW 1018,9 30 58 0,0
12.08.2018 10:00:00 18,2 10,8 22,3 20,5 19,9 22,1 9 5 19 11 WZW 1019,2 30 60 0,0
12.08.2018 09:00:00 16,2 10,3 18,6 18,2 19,8 22,1 16 9 25 14 WZW 1019,6 30 60 0,0
12.08.2018 08:00:00 14,7 10,2 16,1 16,4 19,8 22,1 9 5 19 10 ZW 1019,7 30 60 0,0
12.08.2018 07:00:00 12,6 10,0 11,4 15,5 20,1 22,1 7 4 17 9 ZZW 1019,8 40 21 0,0
12.08.2018 06:00:00 12,5 9,9 10,9 15,6 20,3 22,1 9 5 17 9 WZW 1019,7 40 0 0,0
12.08.2018 05:00:00 12,9 9,8 11,2 16,0 20,6 22,2 11 6 19 10 WZW 1019,6 36 0 0,0
12.08.2018 04:00:00 13,2 9,7 11,4 16,3 20,9 22,2 11 6 22 12 WZW 1019,6 38 0 0,0
12.08.2018 03:00:00 13,3 9,8 11,7 16,8 21,2 22,2 14 8 24 13 W 1019,8 36 0 0,0
12.08.2018 02:00:00 14,1 9,8 12,6 17,3 21,5 22,2 16 8 28 15 W 1019,8 35 0 0,0
12.08.2018 01:00:00 14,4 9,5 13,1 17,8 21,9 22,2 19 11 29 16 WZW 1019,9 4,5 0 0,0
12.08.2018 00:00:00 14,5 9,0 13,0 18,3 22,2 22,2 14 7 20 11 WZW 1020,0 5 0 0,0
11.08.2018 23:00:00 14,8 9,0 12,2 19,1 22,6 22,3 9 5 19 10 WZW 1019,9 40 0 0,0
11.08.2018 22:00:00 16,7 8,3 15,5 20,1 22,9 22,3 18 10 26 14 W 1019,8 44 0 0,0
11.08.2018 21:00:00 17,4 8,4 16,1 21,1 23,3 22,3 18 10 42 23 W 1019,3 58 9 0,0
11.08.2018 20:00:00 19,1 7,4 18,7 22,6 23,5 22,3 27 15 43 23 W 1018,7 27 40 0,0
11.08.2018 19:00:00 19,9 6,8 19,6 23,8 23,6 22,3 26 14 51 28 W 1018,3 41 39 0,0
11.08.2018 18:00:00 21,2 6,7 22,7 25,0 23,5 22,4 29 16 50 27 W 1018,1 14 49 0,0
11.08.2018 17:00:00 22,0 6,8 24,6 25,6 23,3 22,4 29 15 48 26 WZW 1018,0 19 30 0,0
11.08.2018 16:00:00 20,5 7,9 22,6 26,5 22,9 22,4 21 11 42 23 WZW 1018,4 46 57 0,0
11.08.2018 15:00:00 21,3 7,3 25,2 25,5 22,5 22,4 31 17 53 29 WZW 1018,8 50 53 0,0
11.08.2018 14:00:00 19,9 10,5 22,4 23,8 22,2 22,4 26 14 46 25 W 1019,0 50 8 0,0
11.08.2018 13:00:00 19,2 9,2 20,2 23,9 21,9 22,4 25 13 38 21 W 1019,0 40 8 0,0
11.08.2018 12:00:00 20,4 9,5 22,8 23,3 21,6 22,4 24 13 44 24 WZW 1019,0 40 8 0,0
11.08.2018 11:00:00 20,5 9,3 22,5 22,2 21,2 22,4 18 10 27 14 WZW 1018,7 40 21 0,0
11.08.2018 10:00:00 20,1 10,4 22,2 20,7 21,0 22,4 15 8 27 14 ZW 1018,8 30 35 0,0
11.08.2018 09:00:00 17,1 12,3 17,9 18,6 20,9 22,4 10 6 17 9 Z 1018,9 40 6 0,0
11.08.2018 08:00:00 16,1 12,5 17,4 17,5 21,0 22,4 10 5 18 10 ZZO 1019,0 40 2 0,0
11.08.2018 07:00:00 15,0 11,7 14,6 17,0 21,2 22,4 11 6 16 9 Z 1019,2 30 3 0,0
11.08.2018 06:00:00 14,2 11,4 12,8 16,8 21,4 22,4 9 5 14 8 ZZO 1019,6 30 0 0,0
11.08.2018 05:00:00 14,6 10,5 13,1 16,8 21,7 22,5 10 5 21 11 ZZO 1020,0 36 0 0,0
11.08.2018 04:00:00 15,0 9,9 13,4 17,0 22,0 22,5 13 7 19 10 ZZO 1020,7 44 0 0,0
11.08.2018 03:00:00 14,6 9,8 12,1 17,4 22,3 22,5 9 5 15 8 ZZO 1021,3 42 0 0,0
11.08.2018 02:00:00 14,5 9,8 11,4 17,9 22,7 22,5 8 4 11 6 ZZO 1021,8 41 0 0,0
11.08.2018 01:00:00 14,1 11,6 10,6 18,4 23,1 22,5 5 3 9 5 ZZO 1022,1 30 0 0,0
11.08.2018 00:00:00 14,4 11,1 11,0 19,1 23,5 22,5 7 4 8 4 Z 1022,1 36 0 0,0
10.08.2018 23:00:00 15,7 12,0 11,5 19,9 23,9 22,5 6 3 8 4 Z 1022,2 48 0 0,0
10.08.2018 22:00:00 16,6 11,1 12,9 21,0 24,3 22,5 6 3 8 4 Z 1022,2 57 0 0,0
10.08.2018 21:00:00 19,1 8,9 14,4 22,4 24,6 22,5 6 3 14 7 ZZW 1022,0 70 9 0,0
10.08.2018 20:00:00 20,9 9,7 20,0 24,1 24,8 22,5 10 5 24 13 W 1021,6 70 60 0,0
10.08.2018 19:00:00 22,1 8,1 22,9 25,4 24,8 22,5 17 9 27 15 WZW 1021,4 31 56 0,0
10.08.2018 18:00:00 22,2 8,9 23,9 26,1 24,7 22,5 13 7 27 14 W 1021,5 55 34 0,0
10.08.2018 17:00:00 22,0 9,5 23,8 27,0 24,3 22,5 17 9 35 19 WZW 1021,8 48 50 0,0
10.08.2018 16:00:00 22,4 10,8 26,1 26,1 23,9 22,5 23 12 32 17 W 1021,7 32 50 0,0
10.08.2018 15:00:00 21,9 11,1 26,3 24,5 23,7 22,5 18 10 34 19 W 1021,5 50 40 0,0
10.08.2018 14:00:00 20,9 10,9 22,7 22,9 23,6 22,4 25 13 34 19 W 1021,2 50 22 0,0
10.08.2018 13:00:00 20,0 12,7 21,5 21,8 23,6 22,4 20 11 37 20 WZW 1020,7 50 1 0,0
10.08.2018 12:00:00 19,6 12,3 20,4 21,5 23,7 22,4 28 15 41 22 W 1020,4 50 0 0,0
10.08.2018 11:00:00 19,1 13,0 19,3 20,6 23,9 22,4 20 11 40 21 WZW 1019,5 50 0 0,0
10.08.2018 10:00:00 19,1 12,9 18,7 20,7 24,1 22,4 23 12 45 24 WZW 1018,8 50 0 0,0
10.08.2018 09:00:00 19,2 13,7 18,7 21,1 24,4 22,4 29 16 46 25 W 1017,6 50 0 0,0
10.08.2018 08:00:00 20,1 15,9 19,7 21,5 24,6 22,4 18 10 28 15 WZW 1016,4 50 0 0,0
10.08.2018 07:00:00 20,3 16,7 19,9 21,5 24,9 22,4 19 10 36 20 WZW 1015,4 50 0 0,0
10.08.2018 06:00:00 20,6 16,7 19,5 21,6 25,2 22,4 14 8 30 16 ZW 1014,4 40 0 0,0
10.08.2018 05:00:00 20,9 17,0 19,7 22,0 25,6 22,4 19 11 34 18 WZW 1013,6 39 0 0,0
10.08.2018 04:00:00 21,1 17,5 19,9 22,5 26,0 22,4 18 10 32 17 WZW 1012,9 38 0 0,0
10.08.2018 03:00:00 21,6 18,2 20,5 23,2 26,5 22,4 23 12 36 19 WZW 1011,9 33 0 0,0
10.08.2018 02:00:00 22,5 18,5 21,2 24,1 26,9 22,4 22 12 32 17 WZW 1011,0 33 0 0,3
10.08.2018 01:00:00 22,3 19,2 20,5 25,4 27,2 22,4 13 7 23 12 ZW 1010,5 9 0 2,9
10.08.2018 00:00:00 23,7 18,5 23,4 26,5 27,6 22,4 18 10 56 30 W 1010,9 31 0 0,0
09.08.2018 23:00:00 27,0 17,0 26,3 27,1 27,9 22,4 33 18 50 27 WZW 1010,4 0,3 0 0,0
09.08.2018 22:00:00 28,0 16,7 26,2 28,0 28,3 22,4 13 7 23 13 ZO 1008,9 28 0 0,0
09.08.2018 21:00:00 29,7 17,0 27,9 29,2 28,6 22,4 13 7 22 12 ZO 1009,0 25 0 0,0
09.08.2018 20:00:00 30,6 17,2 29,1 31,0 28,7 22,4 11 6 26 14 O 1009,4 25 40 0,0
09.08.2018 19:00:00 32,6 16,7 33,0 32,6 28,7 22,4 14 8 26 14 O 1010,2 32 60 0,0
09.08.2018 18:00:00 33,0 15,4 34,8 33,8 28,5 22,4 16 9 23 13 O 1011,0 44 60 0,0
09.08.2018 17:00:00 33,1 15,7 35,6 34,6 28,1 22,4 14 8 24 13 O 1011,7 34 60 0,0
09.08.2018 16:00:00 32,5 18,0 37,1 34,8 27,6 22,4 11 6 23 13 O 1012,6 33 60 0,0
09.08.2018 15:00:00 32,0 19,1 36,5 34,5 26,9 22,4 12 7 23 13 O 1013,4 30 60 0,0
09.08.2018 14:00:00 30,8 18,8 35,5 33,3 26,2 22,4 10 5 19 11 O 1014,4 30 60 0,0
09.08.2018 13:00:00 29,2 18,6 33,6 31,4 25,5 22,3 8 4 20 11 O 1015,0 30 60 0,0
09.08.2018 12:00:00 28,1 19,7 33,2 29,0 24,9 22,3 11 6 24 13 NO 1015,7 30 60 0,0
09.08.2018 11:00:00 26,2 19,7 30,0 27,0 24,5 22,3 9 5 19 11 NNO 1016,2 20 60 0,0
09.08.2018 10:00:00 24,8 19,1 27,7 25,3 24,3 22,3 13 7 22 12 NNO 1016,4 20 60 0,0
09.08.2018 09:00:00 23,3 19,3 25,6 23,5 24,2 22,3 11 6 23 12 N 1016,2 20 60 0,0
09.08.2018 08:00:00 21,2 18,4 22,3 22,2 24,3 22,3 10 5 19 10 N 1016,1 15 60 0,0
09.08.2018 07:00:00 19,8 18,1 19,2 21,7 24,6 22,3 6 3 12 6 N 1016,1 10 3 0,0
09.08.2018 06:00:00 19,3 17,8 18,1 21,6 24,8 22,3 9 5 13 7 N 1015,8 10 0 0,0
09.08.2018 05:00:00 19,7 17,9 17,8 22,0 25,1 22,3 7 4 13 7 N 1015,5 10 0 0,0
09.08.2018 04:00:00 21,0 18,0 19,7 22,4 25,4 22,3 8 5 16 8 N 1015,2 13 0 0,0
09.08.2018 03:00:00 21,8 17,8 20,2 22,9 25,7 22,3 10 6 16 9 NNW 1014,6 18 0 0,0
09.08.2018 02:00:00 22,7 17,6 20,8 23,4 26,1 22,3 7 4 17 9 NNW 1013,8 22 0 0,0
09.08.2018 01:00:00 23,0 18,2 21,9 23,9 26,4 22,3 15 8 23 12 NW 1013,1 20 0 0,0

tt = temperatuur
td = dauwpunt
tt 5cm = temperatuur 5cm
tt -5cm = temperatuur -5cm
tt -20cm = temperatuur -20cm
tt -100cm = temperatuur -100cm
ff = windsnelheid
fx = windstoten
dd = windrichting
ppp = luchtdruk
vv = zicht
sd = Zonneschijnduur
rr = neerslag

Weerstations in de omgeving